星链-6244 (STARLINK-6244 )

导读 | 星芒AI

STARLINK-6244 是 SpaceX Starlink 卫星互联网项目中的一颗低轨道卫星,属于第 62 批次部署的星链卫星之一。该卫星于 2023 年发射,旨在为全球提供高速、低延迟的宽带互联网服务。它运行在约 550 公里的轨道高度,与其他星链卫星协同工作,覆盖偏远和网络基础设施薄弱的地区。STARLINK-6244 采用先进推进系统和激光通信技术,提高网络稳定性和传输效率,是 SpaceX 构建全球卫星互联网网络的重要组成部分。

基本信息
目录编号:
56548
目录名称:
STARLINK-6244
国际标识:
2023-065AX
轨道中心:
EARTH
卫星名称:
星链-6244
卫星全名:
星链-6244 (STARLINK-6244 )
卫星状态:
在轨 (已飞行952 天)
发射日期:
2023-05-14 UTC
国别 :
美国 (US)
星等 :
--
轨道信息
数据来源 国际轨道数据
星历时间: 2025-12-21T11:53:00+0800
15小时前
查看轨道信息
半长轴: 6937.225km
偏心率: 0.000107
轨道倾角: 43.004°
近地点辐角 272.487°
升交点赤经 289.926°
平近点角 87.585°
近地点: 558.345km
远地点: 559.831km
周期: 95.838分钟
每日圈数: 15.025334
详细信息
固有亮度:
5
最大亮度:
2.5
卫星平台:
Starlink v1.5
覆盖范围:
全球
运营商:
太空探索技术公司
运营商所在国:
美国
制造商(研发单位):
太空探索技术公司
制造商所在国:
美国
使用方式:
暂无
卫星简介
星链(Starlink)计划是由太空探索技术公司(SpaceX)提出的一个巨型低轨卫星互联网星座项目,计划在2019年至2024年间在太空搭建由约1.2万颗卫星组成的“星链”网络,其中1584颗将部署在地球上空550千米处的近地轨道,并从2020年开始工作。该卫星仍在工作。
2D轨道图
3D轨道图
轨道高度分析图
轨道倾角分析图
轨道综合分析图
查看轨道综合分析图